contact:dominique.lefevre@mio.osupytheas.fr, maurice.libes@osupytheas.fr, didier.mallarino@osupytheas.fr
Project:EMSO http://www.emso-fr.org/EMSO-France
Depth: 2436.0 m
Title:EMSO Ligure Ouest : Data MII capteur CSTAR
DateTime,Latitude,Longitude,Instrument_Serial,Reference_Counts,Signal_Counts,Corrected_Signal_raw_counts,Calculated_Beam_c_inverse_meters,Internal_thermistor_counts
DateTime,Latitude,Longitude,Instrument_Serial,Reference_Counts,Signal_Counts,Corrected_Signal_raw_counts,Calculated_Beam_c_inverse_meters,Internal_thermistor_counts
2020-02-06T00:05:06,42.805,6.029,CST-1368DR,6831,9573,15238,0.098,551
2020-02-06T00:08:08,42.805,6.029,CST-1368DR,6831,9577,15244,0.096,551
2020-02-06T00:11:09,42.805,6.029,CST-1368DR,6832,9576,15242,0.097,551
2020-02-06T00:14:11,42.805,6.029,CST-1368DR,6831,9576,15243,0.097,551
2020-02-06T00:17:13,42.805,6.029,CST-1368DR,6831,9576,15243,0.097,551
2020-02-06T00:20:14,42.805,6.029,CST-1368DR,6831,9573,15239,0.098,551
2020-02-06T00:23:16,42.805,6.029,CST-1368DR,6831,9574,15240,0.097,551
2020-02-06T00:26:17,42.805,6.029,CST-1368DR,6831,9576,15243,0.097,551
2020-02-06T00:29:19,42.805,6.029,CST-1368DR,6831,9574,15240,0.097,551
2020-02-06T00:32:21,42.805,6.029,CST-1368DR,6831,9576,15243,0.097,551
2020-02-06T00:35:22,42.805,6.029,CST-1368DR,6831,9573,15238,0.098,550
2020-02-06T00:38:24,42.805,6.029,CST-1368DR,6831,9570,15234,0.099,551
2020-02-06T00:41:26,42.805,6.029,CST-1368DR,6831,9573,15238,0.098,551
2020-02-06T00:44:27,42.805,6.029,CST-1368DR,6831,9576,15242,0.097,551
2020-02-06T00:47:29,42.805,6.029,CST-1368DR,6831,9575,15241,0.097,551
2020-02-06T00:50:30,42.805,6.029,CST-1368DR,6831,9574,15240,0.097,551
2020-02-06T00:53:33,42.805,6.029,CST-1368DR,6831,9576,15242,0.097,550
2020-02-06T00:56:35,42.805,6.029,CST-1368DR,6831,9576,15244,0.096,551
2020-02-06T00:59:36,42.805,6.029,CST-1368DR,6831,9575,15241,0.097,551
2020-02-06T01:02:38,42.805,6.029,CST-1368DR,6831,9576,15243,0.097,551
2020-02-06T01:05:39,42.805,6.029,CST-1368DR,6831,9575,15242,0.097,551
2020-02-06T01:08:41,42.805,6.029,CST-1368DR,6831,9575,15241,0.097,551
2020-02-06T01:11:43,42.805,6.029,CST-1368DR,6831,9573,15238,0.098,551
2020-02-06T01:14:44,42.805,6.029,CST-1368DR,6831,9575,15241,0.097,551
2020-02-06T01:17:46,42.805,6.029,CST-1368DR,6831,9575,15242,0.097,551
2020-02-06T01:20:48,42.805,6.029,CST-1368DR,6831,9574,15240,0.097,551
2020-02-06T01:23:49,42.805,6.029,CST-1368DR,6831,9575,15241,0.097,551
2020-02-06T01:26:51,42.805,6.029,CST-1368DR,6831,9574,15239,0.098,551
2020-02-06T01:29:53,42.805,6.029,CST-1368DR,6831,9575,15242,0.097,551
2020-02-06T01:32:54,42.805,6.029,CST-1368DR,6831,9574,15240,0.097,551
2020-02-06T01:35:56,42.805,6.029,CST-1368DR,6831,9575,15241,0.097,551
2020-02-06T01:38:57,42.805,6.029,CST-1368DR,6831,9574,15240,0.097,551
2020-02-06T01:41:59,42.805,6.029,CST-1368DR,6831,9572,15237,0.098,551
2020-02-06T01:45:01,42.805,6.029,CST-1368DR,6831,9575,15241,0.097,551
2020-02-06T01:48:02,42.805,6.029,CST-1368DR,6831,9573,15238,0.098,551
2020-02-06T01:51:04,42.805,6.029,CST-1368DR,6831,9575,15242,0.097,551
2020-02-06T01:54:06,42.805,6.029,CST-1368DR,6831,9574,15240,0.097,551
2020-02-06T01:57:07,42.805,6.029,CST-1368DR,6831,9574,15239,0.098,551
2020-02-06T02:00:09,42.805,6.029,CST-1368DR,6831,9572,15237,0.098,551
2020-02-06T02:03:10,42.805,6.029,CST-1368DR,6831,9574,15240,0.097,551
2020-02-06T02:06:12,42.805,6.029,CST-1368DR,6831,9575,15241,0.097,551
2020-02-06T02:09:14,42.805,6.029,CST-1368DR,6831,9573,15238,0.098,551
2020-02-06T02:12:15,42.805,6.029,CST-1368DR,6831,9574,15240,0.097,551
2020-02-06T02:15:17,42.805,6.029,CST-1368DR,6831,9573,15239,0.098,551
2020-02-06T02:18:19,42.805,6.029,CST-1368DR,6831,9572,15237,0.098,551
2020-02-06T02:21:20,42.805,6.029,CST-1368DR,6831,9574,15240,0.097,550
2020-02-06T02:24:22,42.805,6.029,CST-1368DR,6831,9574,15240,0.097,551
2020-02-06T02:27:24,42.805,6.029,CST-1368DR,6831,9574,15239,0.098,551
2020-02-06T02:30:25,42.805,6.029,CST-1368DR,6831,9573,15238,0.098,551
2020-02-06T02:33:27,42.805,6.029,CST-1368DR,6831,9574,15239,0.098,551
2020-02-06T02:36:28,42.805,6.029,CST-1368DR,6831,9574,15239,0.098,551
2020-02-06T02:39:30,42.805,6.029,CST-1368DR,6831,9574,15240,0.097,551
2020-02-06T02:42:32,42.805,6.029,CST-1368DR,6831,9574,15240,0.097,551
2020-02-06T02:45:33,42.805,6.029,CST-1368DR,6831,9573,15238,0.098,551
2020-02-06T02:48:35,42.805,6.029,CST-1368DR,6831,9572,15237,0.098,550
2020-02-06T02:51:37,42.805,6.029,CST-1368DR,6831,9573,15238,0.098,551
2020-02-06T02:54:38,42.805,6.029,CST-1368DR,6831,9573,15238,0.098,551
2020-02-06T02:57:40,42.805,6.029,CST-1368DR,6831,9568,15231,0.100,551
2020-02-06T03:00:42,42.805,6.029,CST-1368DR,6831,9572,15237,0.098,551
2020-02-06T03:03:43,42.805,6.029,CST-1368DR,6831,9571,15236,0.099,551
2020-02-06T03:06:45,42.805,6.029,CST-1368DR,6831,9573,15238,0.098,551
2020-02-06T03:09:47,42.805,6.029,CST-1368DR,6831,9573,15239,0.098,551
2020-02-06T03:12:49,42.805,6.029,CST-1368DR,6831,9572,15236,0.099,551
2020-02-06T03:15:50,42.805,6.029,CST-1368DR,6831,9571,15235,0.099,551
2020-02-06T03:18:52,42.805,6.029,CST-1368DR,6831,9572,15237,0.098,551
2020-02-06T03:21:53,42.805,6.029,CST-1368DR,6831,9573,15238,0.098,551
2020-02-06T03:24:55,42.805,6.029,CST-1368DR,6831,9572,15237,0.098,551
2020-02-06T03:27:57,42.805,6.029,CST-1368DR,6831,9572,15236,0.099,551
2020-02-06T03:30:58,42.805,6.029,CST-1368DR,6831,9569,15232,0.100,551
2020-02-06T03:34:00,42.805,6.029,CST-1368DR,6831,9572,15237,0.098,551
2020-02-06T03:37:02,42.805,6.029,CST-1368DR,6831,9573,15238,0.098,551
2020-02-06T03:40:03,42.805,6.029,CST-1368DR,6831,9574,15239,0.098,551
2020-02-06T03:43:05,42.805,6.029,CST-1368DR,6831,9573,15238,0.098,551
2020-02-06T03:46:07,42.805,6.029,CST-1368DR,6831,9572,15237,0.098,551
2020-02-06T03:49:08,42.805,6.029,CST-1368DR,6831,9573,15238,0.098,551
2020-02-06T03:52:10,42.805,6.029,CST-1368DR,6831,9573,15238,0.098,551
2020-02-06T03:55:12,42.805,6.029,CST-1368DR,6831,9573,15238,0.098,551
2020-02-06T03:58:14,42.805,6.029,CST-1368DR,6831,9572,15236,0.099,551
2020-02-06T04:01:15,42.805,6.029,CST-1368DR,6831,9572,15237,0.098,551
2020-02-06T04:04:17,42.805,6.029,CST-1368DR,6830,9573,15240,0.097,551
2020-02-06T04:07:18,42.805,6.029,CST-1368DR,6831,9573,15238,0.098,550
2020-02-06T04:10:20,42.805,6.029,CST-1368DR,6830,9572,15239,0.098,551
2020-02-06T04:13:22,42.805,6.029,CST-1368DR,6831,9573,15238,0.098,551
2020-02-06T04:16:24,42.805,6.029,CST-1368DR,6830,9573,15240,0.097,551
2020-02-06T04:19:25,42.805,6.029,CST-1368DR,6830,9573,15240,0.097,551
2020-02-06T04:22:27,42.805,6.029,CST-1368DR,6831,9573,15238,0.098,551
2020-02-06T04:25:29,42.805,6.029,CST-1368DR,6831,9574,15239,0.098,551
2020-02-06T04:28:30,42.805,6.029,CST-1368DR,6830,9573,15241,0.097,550
2020-02-06T04:31:32,42.805,6.029,CST-1368DR,6830,9574,15242,0.097,551
2020-02-06T04:35:06,42.805,6.029,CST-1368DR,6830,9573,15241,0.097,551
2020-02-06T04:38:08,42.805,6.029,CST-1368DR,6830,9574,15242,0.097,551
2020-02-06T04:41:09,42.805,6.029,CST-1368DR,6830,9574,15242,0.097,551
2020-02-06T04:44:11,42.805,6.029,CST-1368DR,6830,9572,15239,0.098,551
2020-02-06T04:47:12,42.805,6.029,CST-1368DR,6830,9573,15240,0.097,551
2020-02-06T04:50:14,42.805,6.029,CST-1368DR,6830,9573,15241,0.097,551
2020-02-06T04:53:16,42.805,6.029,CST-1368DR,6830,9572,15239,0.098,551
2020-02-06T04:56:17,42.805,6.029,CST-1368DR,6830,9572,15238,0.098,551
2020-02-06T04:59:19,42.805,6.029,CST-1368DR,6830,9572,15239,0.098,551
2020-02-06T05:02:21,42.805,6.029,CST-1368DR,6830,9572,15239,0.098,551
2020-02-06T05:05:22,42.805,6.029,CST-1368DR,6830,9572,15239,0.098,551
2020-02-06T05:08:24,42.805,6.029,CST-1368DR,6830,9573,15240,0.097,551
2020-02-06T05:11:26,42.805,6.029,CST-1368DR,6830,9572,15239,0.098,551
2020-02-06T05:14:27,42.805,6.029,CST-1368DR,6830,9571,15237,0.098,551
2020-02-06T05:17:29,42.805,6.029,CST-1368DR,6830,9571,15237,0.098,551
2020-02-06T05:20:31,42.805,6.029,CST-1368DR,6830,9573,15240,0.097,551
2020-02-06T05:23:32,42.805,6.029,CST-1368DR,6830,9571,15237,0.098,550
2020-02-06T05:26:34,42.805,6.029,CST-1368DR,6830,9571,15237,0.098,551
2020-02-06T05:29:35,42.805,6.029,CST-1368DR,6830,9571,15237,0.098,551
2020-02-06T05:32:37,42.805,6.029,CST-1368DR,6830,9572,15239,0.098,551
2020-02-06T05:35:39,42.805,6.029,CST-1368DR,6830,9573,15240,0.097,551
2020-02-06T05:38:40,42.805,6.029,CST-1368DR,6830,9569,15233,0.099,551
2020-02-06T05:41:42,42.805,6.029,CST-1368DR,6830,9573,15241,0.097,551
2020-02-06T05:44:44,42.805,6.029,CST-1368DR,6830,9573,15241,0.097,551
2020-02-06T05:47:45,42.805,6.029,CST-1368DR,6830,9572,15239,0.098,551
2020-02-06T05:50:47,42.805,6.029,CST-1368DR,6830,9572,15239,0.098,551
2020-02-06T05:53:48,42.805,6.029,CST-1368DR,6830,9572,15239,0.098,551
2020-02-06T05:56:50,42.805,6.029,CST-1368DR,6830,9573,15240,0.097,551
2020-02-06T05:59:52,42.805,6.029,CST-1368DR,6830,9573,15241,0.097,551
2020-02-06T06:02:53,42.805,6.029,CST-1368DR,6830,9572,15239,0.098,551
2020-02-06T06:05:55,42.805,6.029,CST-1368DR,6830,9572,15239,0.098,551
2020-02-06T06:08:57,42.805,6.029,CST-1368DR,6830,9572,15239,0.098,551
2020-02-06T06:11:58,42.805,6.029,CST-1368DR,6830,9572,15238,0.098,551
2020-02-06T06:15:00,42.805,6.029,CST-1368DR,6830,9571,15237,0.098,551
2020-02-06T06:18:01,42.805,6.029,CST-1368DR,6830,9572,15239,0.098,551
2020-02-06T06:21:03,42.805,6.029,CST-1368DR,6830,9572,15239,0.098,551
2020-02-06T06:24:05,42.805,6.029,CST-1368DR,6830,9572,15239,0.098,551
2020-02-06T06:27:06,42.805,6.029,CST-1368DR,6830,9570,15235,0.099,551
2020-02-06T06:30:08,42.805,6.029,CST-1368DR,6830,9570,15236,0.099,551
2020-02-06T06:33:10,42.805,6.029,CST-1368DR,6830,9571,15237,0.098,551
2020-02-06T06:36:11,42.805,6.029,CST-1368DR,6830,9572,15239,0.098,551
2020-02-06T06:39:13,42.805,6.029,CST-1368DR,6830,9573,15240,0.097,551
2020-02-06T06:42:14,42.805,6.029,CST-1368DR,6830,9573,15240,0.097,551
2020-02-06T06:45:16,42.805,6.029,CST-1368DR,6830,9572,15239,0.098,551
2020-02-06T06:48:18,42.805,6.029,CST-1368DR,6830,9572,15239,0.098,551
2020-02-06T06:51:19,42.805,6.029,CST-1368DR,6830,9571,15237,0.098,551
2020-02-06T06:54:21,42.805,6.029,CST-1368DR,6830,9572,15239,0.098,551
2020-02-06T06:57:23,42.805,6.029,CST-1368DR,6830,9573,15241,0.097,551
2020-02-06T07:00:24,42.805,6.029,CST-1368DR,6830,9572,15239,0.098,551
2020-02-06T07:03:26,42.805,6.029,CST-1368DR,6830,9570,15236,0.099,551
2020-02-06T07:06:28,42.805,6.029,CST-1368DR,6830,9573,15241,0.097,551
2020-02-06T07:09:29,42.805,6.029,CST-1368DR,6830,9570,15236,0.099,551
2020-02-06T07:12:31,42.805,6.029,CST-1368DR,6830,9573,15240,0.097,551
2020-02-06T07:15:32,42.805,6.029,CST-1368DR,6830,9574,15241,0.097,551
2020-02-06T07:18:34,42.805,6.029,CST-1368DR,6830,9573,15240,0.097,551
2020-02-06T07:21:36,42.805,6.029,CST-1368DR,6830,9572,15239,0.098,551
2020-02-06T07:24:37,42.805,6.029,CST-1368DR,6830,9571,15237,0.098,551
2020-02-06T07:27:39,42.805,6.029,CST-1368DR,6830,9570,15236,0.099,551
2020-02-06T07:30:41,42.805,6.029,CST-1368DR,6830,9573,15241,0.097,551
2020-02-06T07:33:42,42.805,6.029,CST-1368DR,6830,9573,15241,0.097,551
2020-02-06T07:36:44,42.805,6.029,CST-1368DR,6830,9572,15239,0.098,551
2020-02-06T07:39:46,42.805,6.029,CST-1368DR,6830,9574,15242,0.097,551
2020-02-06T07:42:47,42.805,6.029,CST-1368DR,6830,9574,15242,0.097,551
2020-02-06T07:45:49,42.805,6.029,CST-1368DR,6830,9573,15241,0.097,551
2020-02-06T07:48:51,42.805,6.029,CST-1368DR,6830,9574,15242,0.097,551
2020-02-06T07:51:52,42.805,6.029,CST-1368DR,6830,9574,15242,0.097,551
2020-02-06T07:54:54,42.805,6.029,CST-1368DR,6830,9574,15242,0.097,551
2020-02-06T07:57:55,42.805,6.029,CST-1368DR,6830,9573,15241,0.097,551
2020-02-06T08:00:57,42.805,6.029,CST-1368DR,6830,9574,15241,0.097,551
2020-02-06T08:03:59,42.805,6.029,CST-1368DR,6830,9572,15238,0.098,551
2020-02-06T08:07:00,42.805,6.029,CST-1368DR,6830,9573,15241,0.097,550
2020-02-06T08:10:02,42.805,6.029,CST-1368DR,6830,9574,15242,0.097,551
2020-02-06T08:13:04,42.805,6.029,CST-1368DR,6830,9574,15242,0.097,551
2020-02-06T08:16:05,42.805,6.029,CST-1368DR,6830,9573,15241,0.097,551
2020-02-06T08:19:07,42.805,6.029,CST-1368DR,6830,9573,15240,0.097,551
2020-02-06T08:22:09,42.805,6.029,CST-1368DR,6829,9574,15243,0.097,551
2020-02-06T08:25:10,42.805,6.029,CST-1368DR,6829,9573,15242,0.097,551
2020-02-06T08:28:12,42.805,6.029,CST-1368DR,6829,9571,15239,0.098,551
2020-02-06T08:31:14,42.805,6.029,CST-1368DR,6829,9572,15241,0.097,550
2020-02-06T08:34:15,42.805,6.029,CST-1368DR,6829,9571,15239,0.098,551
2020-02-06T08:37:17,42.805,6.029,CST-1368DR,6829,9573,15243,0.097,551
2020-02-06T08:40:19,42.805,6.029,CST-1368DR,6829,9573,15242,0.097,550
2020-02-06T08:43:20,42.805,6.029,CST-1368DR,6829,9573,15243,0.097,551
2020-02-06T08:46:22,42.805,6.029,CST-1368DR,6829,9572,15241,0.097,551
2020-02-06T08:49:24,42.805,6.029,CST-1368DR,6829,9571,15239,0.098,551
2020-02-06T08:52:25,42.805,6.029,CST-1368DR,6829,9573,15242,0.097,551
2020-02-06T08:55:27,42.805,6.029,CST-1368DR,6829,9573,15243,0.097,551
2020-02-06T08:58:29,42.805,6.029,CST-1368DR,6829,9571,15239,0.098,551
2020-02-06T09:01:30,42.805,6.029,CST-1368DR,6829,9573,15242,0.097,551
2020-02-06T09:04:32,42.805,6.029,CST-1368DR,6829,9572,15241,0.097,551
2020-02-06T09:07:34,42.805,6.029,CST-1368DR,6829,9573,15243,0.097,551
2020-02-06T09:10:35,42.805,6.029,CST-1368DR,6829,9573,15242,0.097,551
2020-02-06T09:13:37,42.805,6.029,CST-1368DR,6829,9573,15243,0.097,551
2020-02-06T09:16:39,42.805,6.029,CST-1368DR,6829,9572,15240,0.097,551
2020-02-06T09:19:40,42.805,6.029,CST-1368DR,6829,9573,15243,0.097,550
2020-02-06T09:22:42,42.805,6.029,CST-1368DR,6829,9572,15241,0.097,551
2020-02-06T09:25:43,42.805,6.029,CST-1368DR,6829,9573,15243,0.097,551
2020-02-06T09:28:45,42.805,6.029,CST-1368DR,6829,9572,15241,0.097,550
2020-02-06T09:31:47,42.805,6.029,CST-1368DR,6829,9572,15240,0.097,551
2020-02-06T09:34:48,42.805,6.029,CST-1368DR,6829,9573,15242,0.097,551
2020-02-06T09:37:50,42.805,6.029,CST-1368DR,6829,9571,15239,0.098,551
2020-02-06T09:40:52,42.805,6.029,CST-1368DR,6829,9570,15237,0.098,551
2020-02-06T09:43:53,42.805,6.029,CST-1368DR,6829,9572,15241,0.097,551
2020-02-06T09:46:55,42.805,6.029,CST-1368DR,6829,9573,15242,0.097,551
2020-02-06T09:49:57,42.805,6.029,CST-1368DR,6829,9572,15241,0.097,551
2020-02-06T09:52:58,42.805,6.029,CST-1368DR,6829,9572,15241,0.097,551
2020-02-06T09:56:00,42.805,6.029,CST-1368DR,6829,9572,15241,0.097,551
2020-02-06T09:59:02,42.805,6.029,CST-1368DR,6829,9573,15242,0.097,551
2020-02-06T10:02:03,42.805,6.029,CST-1368DR,6829,9572,15241,0.097,551
2020-02-06T10:05:05,42.805,6.029,CST-1368DR,6829,9572,15241,0.097,551
2020-02-06T10:08:07,42.805,6.029,CST-1368DR,6829,9572,15241,0.097,551
2020-02-06T10:11:08,42.805,6.029,CST-1368DR,6829,9572,15240,0.097,551
2020-02-06T10:14:10,42.805,6.029,CST-1368DR,6829,9570,15237,0.098,550
2020-02-06T10:17:12,42.805,6.029,CST-1368DR,6829,9572,15241,0.097,551
2020-02-06T10:20:13,42.805,6.029,CST-1368DR,6829,9570,15238,0.098,551
2020-02-06T10:23:15,42.805,6.029,CST-1368DR,6829,9569,15235,0.099,550
2020-02-06T10:26:17,42.805,6.029,CST-1368DR,6829,9570,15237,0.098,551
2020-02-06T10:29:18,42.805,6.029,CST-1368DR,6829,9568,15235,0.099,551
2020-02-06T10:32:20,42.805,6.029,CST-1368DR,6829,9570,15238,0.098,551
2020-02-06T10:35:21,42.805,6.029,CST-1368DR,6829,9571,15239,0.098,551
2020-02-06T10:38:23,42.805,6.029,CST-1368DR,6829,9571,15239,0.098,551
2020-02-06T10:41:25,42.805,6.029,CST-1368DR,6829,9572,15241,0.097,551
2020-02-06T10:44:26,42.805,6.029,CST-1368DR,6829,9568,15234,0.099,551
2020-02-06T10:47:28,42.805,6.029,CST-1368DR,6829,9570,15238,0.098,551
2020-02-06T10:50:30,42.805,6.029,CST-1368DR,6829,9571,15239,0.098,551
2020-02-06T10:53:31,42.805,6.029,CST-1368DR,6829,9570,15237,0.098,551
2020-02-06T10:56:33,42.805,6.029,CST-1368DR,6829,9569,15236,0.099,551
2020-02-06T10:59:35,42.805,6.029,CST-1368DR,6829,9569,15236,0.099,551
2020-02-06T11:02:36,42.805,6.029,CST-1368DR,6829,9571,15239,0.098,551
2020-02-06T11:05:38,42.805,6.029,CST-1368DR,6829,9571,15239,0.098,551
2020-02-06T11:08:40,42.805,6.029,CST-1368DR,6829,9567,15233,0.099,551
2020-02-06T11:11:41,42.805,6.029,CST-1368DR,6829,9570,15237,0.098,551
2020-02-06T11:14:43,42.805,6.029,CST-1368DR,6829,9571,15239,0.098,551
2020-02-06T11:17:44,42.805,6.029,CST-1368DR,6829,9570,15237,0.098,551
2020-02-06T11:20:46,42.805,6.029,CST-1368DR,6828,9568,15236,0.099,551
2020-02-06T11:23:48,42.805,6.029,CST-1368DR,6829,9571,15240,0.097,551
2020-02-06T11:26:49,42.805,6.029,CST-1368DR,6828,9570,15239,0.098,551
2020-02-06T11:29:51,42.805,6.029,CST-1368DR,6828,9569,15239,0.098,551
2020-02-06T11:32:53,42.805,6.029,CST-1368DR,6828,9567,15235,0.099,551
2020-02-06T11:35:54,42.805,6.029,CST-1368DR,6828,9569,15238,0.098,551
2020-02-06T11:38:56,42.805,6.029,CST-1368DR,6828,9569,15238,0.098,551
2020-02-06T11:41:57,42.805,6.029,CST-1368DR,6828,9570,15240,0.097,551
2020-02-06T11:44:59,42.805,6.029,CST-1368DR,6828,9569,15239,0.098,551
2020-02-06T11:48:01,42.805,6.029,CST-1368DR,6828,9571,15242,0.097,551
2020-02-06T11:51:02,42.805,6.029,CST-1368DR,6828,9568,15237,0.098,551
2020-02-06T11:54:04,42.805,6.029,CST-1368DR,6828,9569,15238,0.098,551
2020-02-06T11:57:06,42.805,6.029,CST-1368DR,6828,9570,15240,0.097,551
2020-02-06T12:00:07,42.805,6.029,CST-1368DR,6828,9569,15238,0.098,551
2020-02-06T12:03:09,42.805,6.029,CST-1368DR,6828,9569,15238,0.098,551
2020-02-06T12:06:10,42.805,6.029,CST-1368DR,6828,9569,15239,0.098,551
2020-02-06T12:09:12,42.805,6.029,CST-1368DR,6828,9569,15238,0.098,550
2020-02-06T12:12:14,42.805,6.029,CST-1368DR,6828,9570,15240,0.097,551
2020-02-06T12:15:15,42.805,6.029,CST-1368DR,6828,9570,15240,0.097,551
2020-02-06T12:18:17,42.805,6.029,CST-1368DR,6828,9570,15240,0.097,551
2020-02-06T12:21:19,42.805,6.029,CST-1368DR,6828,9570,15239,0.098,551
2020-02-06T12:24:20,42.805,6.029,CST-1368DR,6828,9568,15237,0.098,551
2020-02-06T12:27:22,42.805,6.029,CST-1368DR,6828,9569,15239,0.098,551
2020-02-06T12:30:23,42.805,6.029,CST-1368DR,6828,9570,15240,0.097,551
2020-02-06T12:33:25,42.805,6.029,CST-1368DR,6828,9570,15239,0.098,551
2020-02-06T12:36:27,42.805,6.029,CST-1368DR,6828,9570,15240,0.097,551
2020-02-06T12:39:28,42.805,6.029,CST-1368DR,6828,9571,15242,0.097,551
2020-02-06T12:42:30,42.805,6.029,CST-1368DR,6828,9569,15238,0.098,551
2020-02-06T12:45:32,42.805,6.029,CST-1368DR,6828,9570,15240,0.097,551
2020-02-06T12:48:33,42.805,6.029,CST-1368DR,6828,9571,15241,0.097,551
2020-02-06T12:51:35,42.805,6.029,CST-1368DR,6828,9571,15241,0.097,551
2020-02-06T12:54:36,42.805,6.029,CST-1368DR,6828,9570,15239,0.098,551
2020-02-06T12:57:38,42.805,6.029,CST-1368DR,6828,9570,15239,0.098,551
2020-02-06T13:00:40,42.805,6.029,CST-1368DR,6828,9570,15240,0.097,551
2020-02-06T13:03:41,42.805,6.029,CST-1368DR,6828,9568,15237,0.098,551
2020-02-06T13:06:43,42.805,6.029,CST-1368DR,6828,9570,15240,0.097,551
2020-02-06T13:09:45,42.805,6.029,CST-1368DR,6828,9569,15238,0.098,551
2020-02-06T13:12:46,42.805,6.029,CST-1368DR,6828,9569,15238,0.098,551
2020-02-06T13:15:48,42.805,6.029,CST-1368DR,6828,9569,15238,0.098,551
2020-02-06T13:18:49,42.805,6.029,CST-1368DR,6828,9568,15237,0.098,551
2020-02-06T13:21:51,42.805,6.029,CST-1368DR,6828,9570,15240,0.097,551
2020-02-06T13:24:53,42.805,6.029,CST-1368DR,6828,9570,15240,0.097,551
2020-02-06T13:27:54,42.805,6.029,CST-1368DR,6828,9569,15238,0.098,551
2020-02-06T13:30:56,42.805,6.029,CST-1368DR,6828,9558,15220,0.103,551
2020-02-06T13:33:58,42.805,6.029,CST-1368DR,6828,9569,15239,0.098,551
2020-02-06T13:36:59,42.805,6.029,CST-1368DR,6828,9569,15239,0.098,551
2020-02-06T13:40:01,42.805,6.029,CST-1368DR,6828,9570,15239,0.098,551
2020-02-06T13:43:03,42.805,6.029,CST-1368DR,6828,9569,15238,0.098,551
2020-02-06T13:46:04,42.805,6.029,CST-1368DR,6828,9567,15236,0.099,550
2020-02-06T13:49:06,42.805,6.029,CST-1368DR,6828,9569,15238,0.098,551
2020-02-06T13:52:08,42.805,6.029,CST-1368DR,6828,9569,15238,0.098,551
2020-02-06T13:55:09,42.805,6.029,CST-1368DR,6828,9570,15240,0.097,551
2020-02-06T13:58:11,42.805,6.029,CST-1368DR,6828,9570,15239,0.098,551
2020-02-06T14:01:13,42.805,6.029,CST-1368DR,6828,9569,15238,0.098,551
2020-02-06T14:04:14,42.805,6.029,CST-1368DR,6828,9562,15228,0.101,551
2020-02-06T14:07:16,42.805,6.029,CST-1368DR,6828,9570,15240,0.097,551
2020-02-06T14:10:17,42.805,6.029,CST-1368DR,6828,9569,15239,0.098,551
2020-02-06T14:13:19,42.805,6.029,CST-1368DR,6828,9570,15240,0.097,551
2020-02-06T14:16:21,42.805,6.029,CST-1368DR,6828,9568,15236,0.099,551
2020-02-06T14:19:23,42.805,6.029,CST-1368DR,6828,9571,15242,0.097,551
2020-02-06T14:22:24,42.805,6.029,CST-1368DR,6828,9570,15240,0.097,551
2020-02-06T14:25:26,42.805,6.029,CST-1368DR,6828,9569,15239,0.098,551
2020-02-06T14:28:27,42.805,6.029,CST-1368DR,6828,9570,15239,0.098,551
2020-02-06T14:31:29,42.805,6.029,CST-1368DR,6828,9569,15239,0.098,551
2020-02-06T14:34:31,42.805,6.029,CST-1368DR,6828,9569,15238,0.098,551
2020-02-06T14:37:32,42.805,6.029,CST-1368DR,6828,9570,15240,0.097,551
2020-02-06T14:40:34,42.805,6.029,CST-1368DR,6828,9570,15239,0.098,551
2020-02-06T14:43:36,42.805,6.029,CST-1368DR,6828,9569,15238,0.098,551
2020-02-06T14:46:37,42.805,6.029,CST-1368DR,6828,9567,15235,0.099,551
2020-02-06T14:49:39,42.805,6.029,CST-1368DR,6828,9569,15238,0.098,551
2020-02-06T14:52:41,42.805,6.029,CST-1368DR,6828,9568,15237,0.098,551
2020-02-06T14:55:42,42.805,6.029,CST-1368DR,6828,9563,15229,0.100,551
2020-02-06T14:58:44,42.805,6.029,CST-1368DR,6828,9569,15238,0.098,551
2020-02-06T15:01:45,42.805,6.029,CST-1368DR,6828,9563,15229,0.100,551
2020-02-06T15:04:47,42.805,6.029,CST-1368DR,6828,9570,15239,0.098,551
2020-02-06T15:07:49,42.805,6.029,CST-1368DR,6828,9567,15235,0.099,551
2020-02-06T15:10:50,42.805,6.029,CST-1368DR,6828,9570,15240,0.097,551
2020-02-06T15:13:52,42.805,6.029,CST-1368DR,6828,9569,15238,0.098,551
2020-02-06T15:16:54,42.805,6.029,CST-1368DR,6828,9569,15239,0.098,551
2020-02-06T15:19:55,42.805,6.029,CST-1368DR,6828,9570,15239,0.098,550
2020-02-06T15:22:57,42.805,6.029,CST-1368DR,6828,9569,15239,0.098,551
2020-02-06T15:25:59,42.805,6.029,CST-1368DR,6828,9569,15238,0.098,551
2020-02-06T15:29:00,42.805,6.029,CST-1368DR,6828,9568,15237,0.098,551
2020-02-06T15:32:02,42.805,6.029,CST-1368DR,6827,9567,15236,0.099,550
2020-02-06T15:35:04,42.805,6.029,CST-1368DR,6827,9568,15239,0.098,551
2020-02-06T15:38:05,42.805,6.029,CST-1368DR,6827,9566,15236,0.099,551
2020-02-06T15:41:07,42.805,6.029,CST-1368DR,6827,9569,15240,0.097,551
2020-02-06T15:44:09,42.805,6.029,CST-1368DR,6827,9567,15238,0.098,551
2020-02-06T15:47:10,42.805,6.029,CST-1368DR,6827,9569,15240,0.097,551
2020-02-06T15:50:12,42.805,6.029,CST-1368DR,6827,9570,15242,0.097,551
2020-02-06T15:53:14,42.805,6.029,CST-1368DR,6827,9570,15241,0.097,551
2020-02-06T15:56:15,42.805,6.029,CST-1368DR,6827,9568,15238,0.098,550
2020-02-06T15:59:17,42.805,6.029,CST-1368DR,6827,9570,15241,0.097,551
2020-02-06T16:02:19,42.805,6.029,CST-1368DR,6827,9568,15239,0.098,551
2020-02-06T16:05:20,42.805,6.029,CST-1368DR,6827,9568,15239,0.098,551
2020-02-06T16:08:22,42.805,6.029,CST-1368DR,6827,9569,15240,0.097,550
2020-02-06T16:11:23,42.805,6.029,CST-1368DR,6827,9566,15236,0.099,551
2020-02-06T16:14:25,42.805,6.029,CST-1368DR,6827,9568,15239,0.098,551
2020-02-06T16:17:27,42.805,6.029,CST-1368DR,6827,9566,15235,0.099,551
2020-02-06T16:20:28,42.805,6.029,CST-1368DR,6827,9567,15237,0.098,551
2020-02-06T16:23:30,42.805,6.029,CST-1368DR,6827,9566,15236,0.099,551
2020-02-06T16:26:32,42.805,6.029,CST-1368DR,6827,9567,15238,0.098,551
2020-02-06T16:29:33,42.805,6.029,CST-1368DR,6827,9565,15234,0.099,551
2020-02-06T16:32:35,42.805,6.029,CST-1368DR,6827,9569,15240,0.097,551
2020-02-06T16:35:37,42.805,6.029,CST-1368DR,6827,9568,15239,0.098,551
2020-02-06T16:38:38,42.805,6.029,CST-1368DR,6827,9566,15236,0.099,551
2020-02-06T16:41:40,42.805,6.029,CST-1368DR,6827,9568,15239,0.098,551
2020-02-06T16:44:42,42.805,6.029,CST-1368DR,6827,9568,15239,0.098,551
2020-02-06T16:47:43,42.805,6.029,CST-1368DR,6827,9568,15238,0.098,551
2020-02-06T16:50:45,42.805,6.029,CST-1368DR,6827,9568,15238,0.098,551
2020-02-06T16:53:46,42.805,6.029,CST-1368DR,6827,9568,15238,0.098,551
2020-02-06T16:56:48,42.805,6.029,CST-1368DR,6827,9568,15239,0.098,551